Weather in Phatthalung

Thailand     7°36′35″N   100°03′30″E
temp.,
°C
wind,
m/s
gust,
m/s
humid.,
%
clouds,
%
prec.,
mm/h
press.,
hPa
HPBL,
m
21 january, thu
thu2101:00+23e128469 0.1 101236
04:00+22se1186100 0.1 101026
07:00+21s019192 0.1 101023
10:00+26ene226976 0.0 1012688
13:00+29ene335787 0.0 10101348
16:00+27e436162 0.0 1008946
19:00+22e228280 0.0 100939
22:00+22se1184100 0.0 101123
22 january, fri
fri2201:00+21ssw118799 0.0 101023
04:00+21ssw018986 0.0 100924
07:00+21ssw118989 0.0 101023
10:00+26ese2266100 0.0 1012683
13:00+29e325558 0.0 10091368
16:00+28ene436719 0.1 1007776
19:00+23e128349 0.3 100828
22:00+22nnw018773 0.0 101023
23 january, sat
sat2301:00+21s119042 0.0 101023
04:00+21s129174 0.0 100825
07:00+22sse129187 0.0 101029
10:00+27ese347177 0.0 1011810
13:00+29e335978 0.0 10091198
16:00+28e436431 0.0 1007930
19:00+23e128621 0.1 100928
22:00+23se129015 0.0 101029
24 january, sun
sun2401:00+23se118956 0.1 101029
04:00+22se129466 0.4 100933
07:00+22sse229363 0.6 101067
10:00+27ese456922 0.0 1012872
13:00+29e456161 0.0 10101173
16:00+28e556829 0.0 1008950
19:00+23e248817 0.0 1009114
22:00+22se22918 0.0 101147
25 january, mon
mon2501:00+22sse12924 0.0 101041
04:00+21sse229324 0.0 100954
07:00+21sse129328 0.0 101042
10:00+26e347341 0.0 1012769
13:00+29e456449 0.0 10091061
16:00+27e446926 0.0 1007921
19:00+24e248433 0.0 1008195
22:00+23ese129028 0.0 101039